Time,TemperatureF,DewpointF,PressureIn,WindDirection,WindDirectionDegrees,WindSpeedMPH,WindSpeedGustMPH,Humidity,HourlyPrecipIn,Conditions,Clouds,dailyrainin,SolarRadiationWatts/m^2,SoftwareType,DateUTC
2013-09-06 00:01:00,77.6,65.3,30.04,East,80,2.3,2.3,66,0.00,SCT,,0.00,0.0,WeatherDisplay:10.37,2013-09-06 05:01:00,
2013-09-06 00:06:00,77.5,65.2,30.04,SE,140,1.2,1.2,66,0.00,SCT,,0.00,0.0,WeatherDisplay:10.37,2013-09-06 05:06:00,
2013-09-06 00:11:00,77.3,65.5,30.04,SE,137,3.5,3.5,67,0.00,SCT,,0.00,0.0,WeatherDisplay:10.37,2013-09-06 05:11:00,
2013-09-06 00:16:00,77.1,65.3,30.04,East,82,2.0,2.0,67,0.00,SCT,,0.00,0.0,WeatherDisplay:10.37,2013-09-06 05:16:00,
2013-09-06 00:21:00,76.9,65.1,30.04,SE,140,1.2,1.2,67,0.00,SCT,,0.00,0.0,WeatherDisplay:10.37,2013-09-06 05:21:00,
2013-09-06 00:26:00,76.8,65.4,30.04,SE,125,0.0,0.0,68,0.00,SCT,,0.00,0.0,WeatherDisplay:10.37,2013-09-06 05:26:00,
2013-09-06 00:31:00,76.6,65.2,30.04,SE,146,2.3,2.3,68,0.00,SCT,,0.00,0.0,WeatherDisplay:10.37,2013-09-06 05:31:00,
2013-09-06 00:36:00,76.5,65.1,30.04,SE,138,1.2,1.2,68,0.00,SCT,,0.00,0.0,WeatherDisplay:10.37,2013-09-06 05:36:00,
2013-09-06 00:41:00,76.4,65.1,30.04,SE,139,1.2,1.2,68,0.00,SCT,,0.00,0.0,WeatherDisplay:10.37,2013-09-06 05:41:00,
2013-09-06 00:46:00,76.2,65.3,30.04,SSE,160,1.2,0.0,69,0.00,SCT,,0.00,0.0,WeatherDisplay:10.37,2013-09-06 05:46:00,
2013-09-06 00:51:00,76.2,65.3,30.04,South,173,4.6,4.6,69,0.00,SCT,,0.00,0.0,WeatherDisplay:10.37,2013-09-06 05:51:00,
2013-09-06 00:56:00,76.0,65.1,30.04,SE,130,3.5,3.5,69,0.00,SCT,,0.00,0.0,WeatherDisplay:10.37,2013-09-06 05:56:00,
2013-09-06 01:01:00,76.0,65.1,30.04,SE,133,0.0,0.0,69,0.00,FEW,,0.00,0.0,WeatherDisplay:10.37,2013-09-06 06:01:00,
2013-09-06 01:06:00,75.8,64.9,30.04,SE,132,1.2,1.2,69,0.00,FEW,,0.00,0.0,WeatherDisplay:10.37,2013-09-06 06:06:00,
2013-09-06 01:11:00,75.7,65.2,30.04,SE,144,1.2,1.2,70,0.00,FEW,,0.00,0.0,WeatherDisplay:10.37,2013-09-06 06:11:00,
2013-09-06 01:16:00,75.5,65.0,30.04,ESE,106,3.5,3.5,70,0.00,FEW,,0.00,0.0,WeatherDisplay:10.37,2013-09-06 06:16:00,
2013-09-06 01:21:00,75.4,64.9,30.04,SE,139,1.2,1.2,70,0.00,FEW,,0.00,0.0,WeatherDisplay:10.37,2013-09-06 06:21:00,
2013-09-06 01:26:00,75.2,65.1,30.04,SSE,155,2.3,2.3,71,0.00,FEW,,0.00,0.0,WeatherDisplay:10.37,2013-09-06 06:26:00,
2013-09-06 01:31:00,75.1,65.1,30.04,SSE,155,1.2,0.0,71,0.00,FEW,,0.00,0.0,WeatherDisplay:10.37,2013-09-06 06:31:00,
2013-09-06 01:36:00,74.9,64.9,30.04,SSE,155,0.0,0.0,71,0.00,FEW,,0.00,0.0,WeatherDisplay:10.37,2013-09-06 06:36:00,
2013-09-06 01:41:00,74.8,64.8,30.04,SSE,155,0.0,0.0,71,0.00,FEW,,0.00,0.0,WeatherDisplay:10.37,2013-09-06 06:41:00,
2013-09-06 01:46:00,74.7,65.1,30.04,SE,132,1.0,0.0,72,0.00,FEW,,0.00,0.0,WeatherDisplay:10.37,2013-09-06 06:46:00,
2013-09-06 01:51:00,74.6,65.0,30.03,SSE,150,3.5,0.0,72,0.00,FEW,,0.00,0.0,WeatherDisplay:10.37,2013-09-06 06:51:00,
2013-09-06 01:56:00,74.5,64.9,30.03,South,174,4.6,4.6,72,0.00,FEW,,0.00,0.0,WeatherDisplay:10.37,2013-09-06 06:56:00,
2013-09-06 02:01:00,74.4,65.2,30.03,ESE,121,1.0,0.0,73,0.00,FEW,,0.00,0.0,WeatherDisplay:10.37,2013-09-06 07:01:00,
2013-09-06 02:06:00,74.2,65.0,30.03,ESE,121,1.2,1.2,73,0.00,FEW,,0.00,0.0,WeatherDisplay:10.37,2013-09-06 07:06:00,
2013-09-06 02:11:00,74.1,64.9,30.03,SE,128,1.2,0.0,73,0.00,FEW,,0.00,0.0,WeatherDisplay:10.37,2013-09-06 07:11:00,
2013-09-06 02:16:00,74.0,64.8,30.03,SSE,154,3.5,3.5,73,0.00,FEW,,0.00,0.0,WeatherDisplay:10.37,2013-09-06 07:16:00,
2013-09-06 02:21:00,73.9,65.1,30.03,SSE,157,1.2,1.2,74,0.00,FEW,,0.00,0.0,WeatherDisplay:10.37,2013-09-06 07:21:00,
2013-09-06 02:26:00,73.8,65.0,30.03,ESE,122,3.0,3.0,74,0.00,FEW,,0.00,0.0,WeatherDisplay:10.37,2013-09-06 07:26:00,
2013-09-06 02:31:00,73.7,64.9,30.03,ESE,123,1.2,1.2,74,0.00,FEW,,0.00,0.0,WeatherDisplay:10.37,2013-09-06 07:31:00,
2013-09-06 02:36:00,73.7,65.3,30.03,SE,129,2.3,0.0,75,0.00,FEW,,0.00,0.0,WeatherDisplay:10.37,2013-09-06 07:36:00,
2013-09-06 02:41:00,73.6,65.2,30.03,SE,143,0.0,0.0,75,0.00,FEW,,0.00,0.0,WeatherDisplay:10.37,2013-09-06 07:41:00,
2013-09-06 02:46:00,73.5,65.1,30.03,SE,143,1.2,1.2,75,0.00,FEW,,0.00,0.0,WeatherDisplay:10.37,2013-09-06 07:46:00,
2013-09-06 02:51:00,73.5,65.1,30.03,ESE,106,1.2,0.0,75,0.00,FEW,,0.00,0.0,WeatherDisplay:10.37,2013-09-06 07:51:00,
2013-09-06 02:56:00,73.5,65.1,30.03,ESE,105,0.0,0.0,75,0.00,FEW,,0.00,0.0,WeatherDisplay:10.37,2013-09-06 07:56:00,
2013-09-06 03:01:00,73.5,65.1,30.02,SSE,153,1.2,1.2,75,0.00,FEW,,0.00,0.0,WeatherDisplay:10.37,2013-09-06 08:01:00,
2013-09-06 03:06:00,73.4,65.0,30.02,South,175,3.5,3.5,75,0.00,FEW,,0.00,0.0,WeatherDisplay:10.37,2013-09-06 08:06:00,
2013-09-06 03:11:00,73.4,65.0,30.03,SSE,155,3.5,3.5,75,0.00,SCT,,0.00,0.0,WeatherDisplay:10.37,2013-09-06 08:11:00,
2013-09-06 03:16:00,73.4,65.0,30.02,SSE,154,0.0,0.0,75,0.00,SCT,,0.00,0.0,WeatherDisplay:10.37,2013-09-06 08:16:00,
2013-09-06 03:21:00,73.3,64.9,30.02,SE,140,2.3,2.3,75,0.00,SCT,,0.00,0.0,WeatherDisplay:10.37,2013-09-06 08:21:00,
2013-09-06 03:26:00,73.3,64.9,30.02,ESE,107,1.2,1.2,75,0.00,SCT,,0.00,0.0,WeatherDisplay:10.37,2013-09-06 08:26:00,
2013-09-06 03:31:00,73.2,64.8,30.02,SE,145,3.5,3.5,75,0.00,SCT,,0.00,0.0,WeatherDisplay:10.37,2013-09-06 08:31:00,
2013-09-06 03:36:00,73.1,65.1,30.02,SSE,150,4.0,4.0,76,0.00,SCT,,0.00,0.0,WeatherDisplay:10.37,2013-09-06 08:36:00,
2013-09-06 03:41:00,73.0,65.0,30.02,SE,142,2.0,2.0,76,0.00,SCT,,0.00,0.0,WeatherDisplay:10.37,2013-09-06 08:41:00,
2013-09-06 03:46:00,72.8,64.8,30.02,SSE,155,1.2,0.0,76,0.00,SCT,,0.00,0.0,WeatherDisplay:10.37,2013-09-06 08:46:00,
2013-09-06 03:51:00,72.7,64.7,30.02,SE,140,2.3,2.3,76,0.00,SCT,,0.00,0.0,WeatherDisplay:10.37,2013-09-06 08:51:00,
2013-09-06 03:56:00,72.6,65.0,30.02,SE,134,0.0,0.0,77,0.00,SCT,,0.00,0.0,WeatherDisplay:10.37,2013-09-06 08:56:00,
2013-09-06 04:01:00,72.6,65.0,30.02,SE,134,1.2,0.0,77,0.00,SCT,,0.00,0.0,WeatherDisplay:10.37,2013-09-06 09:01:00,
2013-09-06 04:06:00,72.5,64.9,30.02,SSE,149,2.3,2.3,77,0.00,SCT,,0.00,0.0,WeatherDisplay:10.37,2013-09-06 09:06:00,
2013-09-06 04:11:00,72.4,64.8,30.02,SSE,162,3.0,3.0,77,0.00,SCT,,0.00,0.0,WeatherDisplay:10.37,2013-09-06 09:11:00,
2013-09-06 04:16:00,72.4,64.8,30.02,ESE,107,2.0,2.0,77,0.00,SCT,,0.00,0.0,WeatherDisplay:10.37,2013-09-06 09:16:00,
2013-09-06 04:21:00,72.4,64.8,30.02,SE,146,3.5,3.5,77,0.00,SCT,,0.00,0.0,WeatherDisplay:10.37,2013-09-06 09:21:00,
2013-09-06 04:26:00,72.3,65.1,30.02,SE,135,0.0,0.0,78,0.00,SCT,,0.00,0.0,WeatherDisplay:10.37,2013-09-06 09:26:00,
2013-09-06 04:31:00,72.3,64.7,30.02,SE,142,0.0,0.1,77,0.00,SCT,,0.00,0.0,WeatherDisplay:10.37,2013-09-06 09:31:00,
2013-09-06 04:36:00,72.1,64.5,30.02,SE,142,1.2,1.2,77,0.00,SCT,,0.00,0.0,WeatherDisplay:10.37,2013-09-06 09:36:00,
2013-09-06 04:41:00,72.0,64.8,30.02,SE,146,1.0,1.0,78,0.00,SCT,,0.00,0.0,WeatherDisplay:10.37,2013-09-06 09:41:00,
2013-09-06 04:46:00,71.9,64.7,30.02,SSE,157,1.2,1.2,78,0.00,SCT,,0.00,0.0,WeatherDisplay:10.37,2013-09-06 09:46:00,
2013-09-06 04:51:00,71.8,64.6,30.02,SSE,157,1.2,1.2,78,0.00,SCT,,0.00,0.0,WeatherDisplay:10.37,2013-09-06 09:51:00,
2013-09-06 04:56:00,71.6,64.7,30.02,SSE,157,2.3,2.3,79,0.00,SCT,,0.00,0.0,WeatherDisplay:10.37,2013-09-06 09:56:00,
2013-09-06 05:01:00,71.5,64.6,30.02,SSE,168,2.3,0.0,79,0.00,FEW,,0.00,0.0,WeatherDisplay:10.37,2013-09-06 10:01:00,
2013-09-06 05:06:00,71.4,64.5,30.02,SSE,167,2.3,2.3,79,0.00,FEW,,0.00,0.0,WeatherDisplay:10.37,2013-09-06 10:06:00,
2013-09-06 05:11:00,71.3,64.8,30.02,South,177,3.5,3.5,80,0.00,FEW,,0.00,0.0,WeatherDisplay:10.37,2013-09-06 10:11:00,
2013-09-06 05:16:00,71.2,64.7,30.02,South,176,3.5,3.5,80,0.00,FEW,,0.00,0.0,WeatherDisplay:10.37,2013-09-06 10:16:00,
2013-09-06 05:21:00,71.1,64.6,30.02,South,175,2.3,2.3,80,0.00,FEW,,0.00,0.0,WeatherDisplay:10.37,2013-09-06 10:21:00,
2013-09-06 05:26:00,71.0,64.5,30.02,SSE,153,2.3,2.3,80,0.00,FEW,,0.00,0.0,WeatherDisplay:10.37,2013-09-06 10:26:00,
2013-09-06 05:31:00,70.8,64.3,30.02,SSE,153,0.0,0.0,80,0.00,FEW,,0.00,0.0,WeatherDisplay:10.37,2013-09-06 10:31:00,
2013-09-06 05:36:00,70.7,64.6,30.02,SSE,155,3.5,3.5,81,0.00,FEW,,0.00,0.0,WeatherDisplay:10.37,2013-09-06 10:36:00,
2013-09-06 05:41:00,70.6,64.5,30.02,South,182,3.5,3.5,81,0.00,FEW,,0.00,0.0,WeatherDisplay:10.37,2013-09-06 10:41:00,
2013-09-06 05:46:00,70.4,64.6,30.02,SE,141,1.2,1.2,82,0.00,FEW,,0.00,0.0,WeatherDisplay:10.37,2013-09-06 10:46:00,
2013-09-06 05:51:00,70.4,64.6,30.02,SSE,150,2.3,0.0,82,0.00,FEW,,0.00,0.0,WeatherDisplay:10.37,2013-09-06 10:51:00,
2013-09-06 05:56:00,70.3,64.5,30.01,South,183,1.2,1.2,82,0.00,FEW,,0.00,0.0,WeatherDisplay:10.37,2013-09-06 10:56:00,
2013-09-06 06:01:00,70.2,64.4,30.02,South,173,1.2,1.2,82,0.00,FEW,,0.00,0.0,WeatherDisplay:10.37,2013-09-06 11:01:00,
2013-09-06 06:06:00,70.1,64.3,30.02,South,173,0.0,0.0,82,0.00,FEW,,0.00,0.0,WeatherDisplay:10.37,2013-09-06 11:06:00,
2013-09-06 06:11:00,69.9,64.5,30.02,South,173,1.2,0.0,83,0.00,FEW,,0.00,0.0,WeatherDisplay:10.37,2013-09-06 11:11:00,
2013-09-06 06:16:00,69.8,64.4,30.02,SE,144,2.3,0.0,83,0.00,FEW,,0.00,0.0,WeatherDisplay:10.37,2013-09-06 11:16:00,
2013-09-06 06:21:00,69.6,64.2,30.02,SE,144,0.0,0.0,83,0.00,FEW,,0.00,0.0,WeatherDisplay:10.37,2013-09-06 11:21:00,
2013-09-06 06:26:00,69.4,64.4,30.02,SE,144,0.0,0.0,84,0.00,FEW,,0.00,0.0,WeatherDisplay:10.37,2013-09-06 11:26:00,
2013-09-06 06:31:00,69.3,64.6,30.02,SE,144,0.0,0.0,85,0.00,FEW,,0.00,0.0,WeatherDisplay:10.37,2013-09-06 11:31:00,
2013-09-06 06:36:00,69.1,64.4,30.02,SE,144,0.0,0.0,85,0.00,FEW,,0.00,0.0,WeatherDisplay:10.37,2013-09-06 11:36:00,
2013-09-06 06:41:00,68.9,64.2,30.02,SE,144,0.0,0.0,85,0.00,FEW,,0.00,0.0,WeatherDisplay:10.37,2013-09-06 11:41:00,
2013-09-06 06:46:00,68.7,64.0,30.02,SE,144,0.0,0.0,85,0.00,FEW,,0.00,0.0,WeatherDisplay:10.37,2013-09-06 11:46:00,
2013-09-06 06:51:00,68.5,64.1,30.02,SE,144,0.0,0.0,86,0.00,FEW,,0.00,0.0,WeatherDisplay:10.37,2013-09-06 11:51:00,
2013-09-06 06:56:00,68.3,63.9,30.02,SE,144,0.0,0.0,86,0.00,FEW,,0.00,0.0,WeatherDisplay:10.37,2013-09-06 11:56:00,
2013-09-06 07:01:00,68.1,64.1,30.03,SE,144,0.0,0.0,87,0.00,SCT,,0.00,0.0,WeatherDisplay:10.37,2013-09-06 12:01:00,
2013-09-06 07:06:00,68.0,64.0,30.02,SE,144,0.0,0.0,87,0.00,SCT,,0.00,0.0,WeatherDisplay:10.37,2013-09-06 12:06:00,
2013-09-06 07:11:00,67.8,63.8,30.03,SE,144,0.0,0.0,87,0.00,SCT,,0.00,5.0,WeatherDisplay:10.37,2013-09-06 12:11:00,
2013-09-06 07:16:00,67.7,64.0,30.03,SE,138,2.3,2.3,88,0.00,SCT,,0.00,7.0,WeatherDisplay:10.37,2013-09-06 12:16:00,
2013-09-06 07:21:00,67.6,63.9,30.03,SE,138,0.0,0.0,88,0.00,SCT,,0.00,11.0,WeatherDisplay:10.37,2013-09-06 12:21:00,
2013-09-06 07:26:00,67.4,63.7,30.03,SE,138,0.0,0.0,88,0.00,SCT,,0.00,14.0,WeatherDisplay:10.37,2013-09-06 12:26:00,
2013-09-06 07:31:00,67.4,64.0,30.03,SE,138,0.0,0.0,89,0.00,SCT,,0.00,18.0,WeatherDisplay:10.37,2013-09-06 12:31:00,
2013-09-06 07:36:00,67.4,64.0,30.03,SE,138,0.0,0.0,89,0.00,SCT,,0.00,23.0,WeatherDisplay:10.37,2013-09-06 12:36:00,
2013-09-06 07:41:00,67.4,64.4,30.03,SE,138,0.0,0.0,90,0.00,SCT,,0.00,32.0,WeatherDisplay:10.37,2013-09-06 12:41:00,
2013-09-06 07:46:00,67.6,64.6,30.03,SE,138,0.0,0.0,90,0.00,SCT,,0.00,40.0,WeatherDisplay:10.37,2013-09-06 12:46:00,
2013-09-06 07:51:00,67.9,64.9,30.03,SE,126,2.3,2.3,90,0.00,SCT,,0.00,49.0,WeatherDisplay:10.37,2013-09-06 12:51:00,
2013-09-06 07:56:00,68.3,64.9,30.03,SE,136,2.3,0.0,89,0.00,SCT,,0.00,53.0,WeatherDisplay:10.37,2013-09-06 12:56:00,
2013-09-06 08:01:00,68.7,65.0,30.03,SE,136,1.0,1.0,88,0.00,SCT,,0.00,51.0,WeatherDisplay:10.37,2013-09-06 13:01:00,
2013-09-06 08:06:00,69.2,65.5,30.03,SE,142,2.3,2.3,88,0.00,SCT,,0.00,47.0,WeatherDisplay:10.37,2013-09-06 13:06:00,
2013-09-06 08:11:00,69.7,65.7,30.03,ESE,121,3.0,3.0,87,0.00,SCT,,0.00,42.0,WeatherDisplay:10.37,2013-09-06 13:11:00,
2013-09-06 08:16:00,70.1,65.7,30.03,SSW,194,3.5,3.5,86,0.00,SCT,,0.00,37.0,WeatherDisplay:10.37,2013-09-06 13:16:00,
2013-09-06 08:21:00,70.5,65.8,30.03,SE,140,0.0,0.0,85,0.00,SCT,,0.00,39.0,WeatherDisplay:10.37,2013-09-06 13:21:00,
2013-09-06 08:26:00,70.8,65.7,30.04,South,180,1.2,1.2,84,0.00,SCT,,0.00,100.0,WeatherDisplay:10.37,2013-09-06 13:26:00,
2013-09-06 08:31:00,71.2,66.1,30.03,South,171,1.2,1.2,84,0.00,SCT,,0.00,51.0,WeatherDisplay:10.37,2013-09-06 13:31:00,
2013-09-06 08:36:00,71.6,66.2,30.03,SE,145,2.3,2.3,83,0.00,SCT,,0.00,74.0,WeatherDisplay:10.37,2013-09-06 13:36:00,
2013-09-06 08:41:00,72.1,66.6,30.04,ESE,121,1.2,1.2,83,0.00,SCT,,0.00,72.0,WeatherDisplay:10.37,2013-09-06 13:41:00,
2013-09-06 08:46:00,72.4,66.2,30.04,SSE,162,3.5,3.5,81,0.00,SCT,,0.00,49.0,WeatherDisplay:10.37,2013-09-06 13:46:00,
2013-09-06 08:51:00,72.7,66.5,30.04,SSE,153,4.6,4.6,81,0.00,SCT,,0.00,49.0,WeatherDisplay:10.37,2013-09-06 13:51:00,
2013-09-06 08:56:00,73.0,66.8,30.04,SSE,160,1.2,1.7,81,0.00,SCT,,0.00,74.0,WeatherDisplay:10.37,2013-09-06 13:56:00,
2013-09-06 09:01:00,73.3,66.8,30.04,SSE,162,2.3,2.3,80,0.00,SCT,,0.00,56.0,WeatherDisplay:10.37,2013-09-06 14:01:00,
2013-09-06 09:06:00,73.5,66.9,30.04,SSE,161,2.3,2.3,80,0.00,SCT,,0.00,58.0,WeatherDisplay:10.37,2013-09-06 14:06:00,
2013-09-06 09:11:00,73.9,67.0,30.04,SE,142,2.3,2.3,79,0.00,SCT,,0.00,60.0,WeatherDisplay:10.37,2013-09-06 14:11:00,
2013-09-06 09:16:00,74.3,67.0,30.03,South,180,3.5,3.5,78,0.00,SCT,,0.00,65.0,WeatherDisplay:10.37,2013-09-06 14:16:00,
2013-09-06 09:21:00,74.7,67.0,30.03,South,176,3.5,3.5,77,0.00,SCT,,0.00,81.0,WeatherDisplay:10.37,2013-09-06 14:21:00,
2013-09-06 09:26:00,75.1,67.0,30.03,ESE,106,6.9,6.9,76,0.00,SCT,,0.00,67.0,WeatherDisplay:10.37,2013-09-06 14:26:00,
2013-09-06 09:31:00,75.5,67.4,30.03,SSE,163,3.5,3.5,76,0.00,SCT,,0.00,72.0,WeatherDisplay:10.37,2013-09-06 14:31:00,
2013-09-06 09:36:00,76.0,67.5,30.03,South,169,2.3,2.3,75,0.00,SCT,,0.00,162.0,WeatherDisplay:10.37,2013-09-06 14:36:00,
2013-09-06 09:41:00,76.6,67.3,30.03,SE,136,2.3,2.3,73,0.00,SCT,,0.00,158.0,WeatherDisplay:10.37,2013-09-06 14:41:00,
2013-09-06 09:46:00,77.3,66.7,30.03,SSW,197,6.0,6.0,70,0.00,SCT,,0.00,221.0,WeatherDisplay:10.37,2013-09-06 14:46:00,
2013-09-06 09:51:00,77.9,67.3,30.03,SSW,200,3.5,3.5,70,0.00,SCT,,0.00,67.0,WeatherDisplay:10.37,2013-09-06 14:51:00,
2013-09-06 09:56:00,78.3,67.3,30.03,SSE,148,8.1,8.1,69,0.00,SCT,,0.00,67.0,WeatherDisplay:10.37,2013-09-06 14:56:00,
2013-09-06 10:01:00,78.7,66.8,30.03,SSE,156,6.9,6.9,67,0.00,SCT,,0.00,69.0,WeatherDisplay:10.37,2013-09-06 15:01:00,
2013-09-06 10:06:00,79.0,67.5,30.03,SSE,154,5.0,5.0,68,0.00,SCT,,0.00,114.0,WeatherDisplay:10.37,2013-09-06 15:06:00,
2013-09-06 10:11:00,79.3,67.4,30.03,SE,135,4.6,4.6,67,0.00,SCT,,0.00,135.0,WeatherDisplay:10.37,2013-09-06 15:11:00,
2013-09-06 10:16:00,79.7,67.3,30.03,SSE,159,8.1,8.1,66,0.00,SCT,,0.00,76.0,WeatherDisplay:10.37,2013-09-06 15:16:00,
2013-09-06 10:21:00,80.2,67.8,30.03,South,172,3.5,3.5,66,0.00,SCT,,0.00,77.0,WeatherDisplay:10.37,2013-09-06 15:21:00,
2013-09-06 10:26:00,80.6,67.7,30.02,SSE,147,5.0,5.0,65,0.00,SCT,,0.00,72.0,WeatherDisplay:10.37,2013-09-06 15:26:00,
2013-09-06 10:31:00,81.0,68.1,30.02,SSW,196,4.6,4.6,65,0.00,SCT,,0.00,72.0,WeatherDisplay:10.37,2013-09-06 15:31:00,
2013-09-06 10:36:00,81.3,67.5,30.02,SE,142,3.5,3.5,63,0.00,SCT,,0.00,76.0,WeatherDisplay:10.37,2013-09-06 15:36:00,
2013-09-06 10:41:00,81.6,67.8,30.02,East,79,3.5,3.5,63,0.00,SCT,,0.00,492.0,WeatherDisplay:10.37,2013-09-06 15:41:00,
2013-09-06 10:46:00,82.1,67.8,30.02,South,187,5.0,5.0,62,0.00,SCT,,0.00,450.0,WeatherDisplay:10.37,2013-09-06 15:46:00,
2013-09-06 10:51:00,82.5,68.2,30.02,South,171,2.0,2.0,62,0.00,SCT,,0.00,221.0,WeatherDisplay:10.37,2013-09-06 15:51:00,
2013-09-06 10:56:00,82.9,68.1,30.02,SSW,196,4.6,4.6,61,0.00,SCT,,0.00,102.0,WeatherDisplay:10.37,2013-09-06 15:56:00,
2013-09-06 11:01:00,83.1,67.8,30.02,SE,139,6.9,6.9,60,0.00,SCT,,0.00,90.0,WeatherDisplay:10.37,2013-09-06 16:01:00,
2013-09-06 11:06:00,83.4,67.6,30.02,SE,142,5.8,5.8,59,0.00,SCT,,0.00,267.0,WeatherDisplay:10.37,2013-09-06 16:06:00,
2013-09-06 11:11:00,83.6,67.3,30.02,SE,126,4.0,4.0,58,0.00,FEW,,0.00,105.0,WeatherDisplay:10.37,2013-09-06 16:11:00,
2013-09-06 11:16:00,83.9,66.5,30.02,SE,141,5.8,5.8,56,0.00,FEW,,0.00,121.0,WeatherDisplay:10.37,2013-09-06 16:16:00,
2013-09-06 11:21:00,84.3,67.4,30.01,South,186,8.1,8.1,57,0.00,FEW,,0.00,97.0,WeatherDisplay:10.37,2013-09-06 16:21:00,
2013-09-06 11:26:00,84.6,67.2,30.01,SE,140,6.9,6.9,56,0.00,FEW,,0.00,213.0,WeatherDisplay:10.37,2013-09-06 16:26:00,
2013-09-06 11:31:00,85.0,67.0,30.01,SSE,159,8.1,8.1,55,0.00,FEW,,0.00,325.0,WeatherDisplay:10.37,2013-09-06 16:31:00,
2013-09-06 11:36:00,85.5,67.0,30.01,ESE,123,8.1,8.1,54,0.00,FEW,,0.00,399.0,WeatherDisplay:10.37,2013-09-06 16:36:00,
2013-09-06 11:41:00,86.1,67.5,30.01,SSW,194,4.6,4.6,54,0.00,FEW,,0.00,529.0,WeatherDisplay:10.37,2013-09-06 16:41:00,
2013-09-06 11:46:00,86.6,66.9,30.01,SE,124,6.0,6.0,52,0.00,FEW,,0.00,410.0,WeatherDisplay:10.37,2013-09-06 16:46:00,
2013-09-06 11:51:00,86.9,66.6,30.01,South,178,9.2,9.2,51,0.00,FEW,,0.00,311.0,WeatherDisplay:10.37,2013-09-06 16:51:00,
2013-09-06 11:56:00,87.3,67.5,30.01,SSE,151,5.8,5.8,52,0.00,FEW,,0.00,466.0,WeatherDisplay:10.37,2013-09-06 16:56:00,
2013-09-06 12:01:00,87.7,67.3,30.00,SSE,148,6.9,6.9,51,0.00,FEW,,0.00,694.0,WeatherDisplay:10.37,2013-09-06 17:01:00,
2013-09-06 12:06:00,88.2,67.2,30.00,SE,130,11.5,11.5,50,0.00,FEW,,0.00,707.0,WeatherDisplay:10.37,2013-09-06 17:06:00,
2013-09-06 12:11:00,88.7,66.5,30.00,South,181,6.9,6.9,48,0.00,FEW,,0.00,714.0,WeatherDisplay:10.37,2013-09-06 17:11:00,
2013-09-06 12:16:00,89.1,68.0,30.00,SW,234,5.8,5.8,50,0.00,FEW,,0.00,719.0,WeatherDisplay:10.37,2013-09-06 17:16:00,
2013-09-06 12:21:00,89.5,67.2,30.00,South,174,3.5,3.5,48,0.00,FEW,,0.00,726.0,WeatherDisplay:10.37,2013-09-06 17:21:00,
2013-09-06 12:26:00,89.9,68.2,30.00,SE,142,3.5,3.5,49,0.00,FEW,,0.00,735.0,WeatherDisplay:10.37,2013-09-06 17:26:00,
2013-09-06 12:31:00,90.2,67.2,29.99,SSE,165,6.9,6.9,47,0.00,FEW,,0.00,740.0,WeatherDisplay:10.37,2013-09-06 17:31:00,
2013-09-06 12:36:00,90.5,68.7,29.99,SW,232,3.5,3.5,49,0.00,FEW,,0.00,744.0,WeatherDisplay:10.37,2013-09-06 17:36:00,
2013-09-06 12:41:00,90.9,68.5,29.99,SSW,199,5.8,5.8,48,0.00,FEW,,0.00,749.0,WeatherDisplay:10.37,2013-09-06 17:41:00,
2013-09-06 12:46:00,91.1,68.7,29.99,SSE,150,3.0,3.0,48,0.00,FEW,,0.00,751.0,WeatherDisplay:10.37,2013-09-06 17:46:00,
2013-09-06 12:51:00,91.3,67.6,29.99,South,171,10.4,10.4,46,0.00,FEW,,0.00,758.0,WeatherDisplay:10.37,2013-09-06 17:51:00,
2013-09-06 12:56:00,91.5,68.4,29.98,SSE,148,5.0,5.0,47,0.00,FEW,,0.00,763.0,WeatherDisplay:10.37,2013-09-06 17:56:00,
2013-09-06 13:01:00,91.6,67.3,29.98,SE,132,8.1,8.1,45,0.00,CLR,,0.00,766.0,WeatherDisplay:10.37,2013-09-06 18:01:00,
2013-09-06 13:06:00,91.8,68.1,29.98,SE,125,4.6,4.6,46,0.00,CLR,,0.00,770.0,WeatherDisplay:10.37,2013-09-06 18:06:00,
2013-09-06 13:11:00,92.2,68.4,29.98,SW,218,4.0,4.0,46,0.00,CLR,,0.00,768.0,WeatherDisplay:10.37,2013-09-06 18:11:00,
2013-09-06 13:16:00,92.6,70.0,29.98,SE,139,3.5,3.5,48,0.00,CLR,,0.00,772.0,WeatherDisplay:10.37,2013-09-06 18:16:00,
2013-09-06 13:21:00,92.9,68.4,29.98,SSE,148,7.0,7.0,45,0.00,CLR,,0.00,773.0,WeatherDisplay:10.37,2013-09-06 18:21:00,
2013-09-06 13:26:00,93.1,68.0,29.97,SSW,193,3.5,3.5,44,0.00,CLR,,0.00,775.0,WeatherDisplay:10.37,2013-09-06 18:26:00,
2013-09-06 14:12:00,94.1,67.5,29.96,SSW,198,4.6,4.6,42,0.00,CLR,,0.00,768.0,WeatherDisplay:10.37,2013-09-06 19:12:00,
2013-09-06 14:17:00,94.4,67.8,29.96,SSE,150,3.5,3.5,42,0.00,CLR,,0.00,759.0,WeatherDisplay:10.37,2013-09-06 19:17:00,
2013-09-06 14:22:00,94.4,67.8,29.95,SE,125,6.9,6.9,42,0.00,CLR,,0.00,735.0,WeatherDisplay:10.37,2013-09-06 19:22:00,
2013-09-06 14:27:00,94.5,68.5,29.95,South,173,3.5,3.5,43,0.00,CLR,,0.00,490.0,WeatherDisplay:10.37,2013-09-06 19:27:00,
2013-09-06 14:32:00,94.7,69.4,29.95,SE,138,2.0,2.0,44,0.00,CLR,,0.00,747.0,WeatherDisplay:10.37,2013-09-06 19:32:00,
2013-09-06 14:37:00,94.6,68.6,29.94,ESE,107,3.5,3.5,43,0.00,CLR,,0.00,744.0,WeatherDisplay:10.37,2013-09-06 19:37:00,
2013-09-06 14:42:00,94.5,67.9,29.94,SE,144,6.9,6.9,42,0.00,CLR,,0.00,740.0,WeatherDisplay:10.37,2013-09-06 19:42:00,
2013-09-06 14:47:00,94.6,68.6,29.94,SSE,158,3.5,3.5,43,0.00,CLR,,0.00,724.0,WeatherDisplay:10.37,2013-09-06 19:47:00,
2013-09-06 14:52:00,94.8,67.4,29.94,East,80,3.5,3.5,41,0.00,CLR,,0.00,714.0,WeatherDisplay:10.37,2013-09-06 19:52:00,
2013-09-06 14:57:00,94.6,67.3,29.94,SE,146,3.5,3.5,41,0.00,CLR,,0.00,719.0,WeatherDisplay:10.37,2013-09-06 19:57:00,
2013-09-06 15:02:00,94.7,68.7,29.94,South,172,4.6,4.6,43,0.00,CLR,,0.00,696.0,WeatherDisplay:10.37,2013-09-06 20:02:00,
2013-09-06 15:07:00,94.8,67.4,29.93,SE,138,6.9,6.9,41,0.00,CLR,,0.00,701.0,WeatherDisplay:10.37,2013-09-06 20:07:00,
2013-09-06 15:12:00,95.0,66.9,29.93,SSE,153,8.1,8.1,40,0.00,CLR,,0.00,701.0,WeatherDisplay:10.37,2013-09-06 20:12:00,
2013-09-06 15:17:00,95.1,67.7,29.93,SSW,196,3.5,3.5,41,0.00,CLR,,0.00,668.0,WeatherDisplay:10.37,2013-09-06 20:17:00,
2013-09-06 15:22:00,95.4,69.4,29.93,SSW,202,3.5,3.5,43,0.00,CLR,,0.00,684.0,WeatherDisplay:10.37,2013-09-06 20:22:00,
2013-09-06 15:27:00,95.5,67.3,29.93,SSE,157,3.5,3.5,40,0.00,CLR,,0.00,657.0,WeatherDisplay:10.37,2013-09-06 20:27:00,
2013-09-06 15:32:00,95.6,68.1,29.92,SE,128,2.3,2.3,41,0.00,CLR,,0.00,652.0,WeatherDisplay:10.37,2013-09-06 20:32:00,
2013-09-06 15:37:00,95.8,69.0,29.92,South,183,6.9,6.9,42,0.00,CLR,,0.00,636.0,WeatherDisplay:10.37,2013-09-06 20:37:00,
2013-09-06 15:42:00,96.1,70.0,29.92,SE,130,2.3,2.3,43,0.00,CLR,,0.00,640.0,WeatherDisplay:10.37,2013-09-06 20:42:00,
2013-09-06 15:47:00,96.2,68.0,29.92,SE,145,3.5,3.5,40,0.00,CLR,,0.00,643.0,WeatherDisplay:10.37,2013-09-06 20:47:00,
2013-09-06 15:52:00,96.2,67.2,29.92,SE,136,2.0,2.0,39,0.00,CLR,,0.00,629.0,WeatherDisplay:10.37,2013-09-06 20:52:00,
2013-09-06 15:57:00,96.2,67.2,29.92,ESE,115,3.5,3.5,39,0.00,CLR,,0.00,613.0,WeatherDisplay:10.37,2013-09-06 20:57:00,
2013-09-06 16:02:00,96.1,67.1,29.91,SSE,147,5.8,5.8,39,0.00,SCT,,0.00,606.0,WeatherDisplay:10.37,2013-09-06 21:02:00,
2013-09-06 16:07:00,96.1,68.6,29.91,SE,146,9.2,9.2,41,0.00,SCT,,0.00,594.0,WeatherDisplay:10.37,2013-09-06 21:07:00,
2013-09-06 16:12:00,96.1,68.6,29.91,SSE,148,6.9,6.9,41,0.00,SCT,,0.00,587.0,WeatherDisplay:10.37,2013-09-06 21:12:00,
2013-09-06 16:17:00,96.1,67.1,29.91,WSW,238,2.3,2.3,39,0.00,SCT,,0.00,564.0,WeatherDisplay:10.37,2013-09-06 21:17:00,
2013-09-06 16:22:00,96.1,67.1,29.91,SE,130,3.5,3.5,39,0.00,SCT,,0.00,555.0,WeatherDisplay:10.37,2013-09-06 21:22:00,
2013-09-06 16:27:00,96.0,67.0,29.91,East,100,3.5,3.5,39,0.00,SCT,,0.00,552.0,WeatherDisplay:10.37,2013-09-06 21:27:00,
2013-09-06 16:32:00,95.8,66.9,29.91,SSE,157,5.8,5.8,39,0.00,SCT,,0.00,540.0,WeatherDisplay:10.37,2013-09-06 21:32:00,
2013-09-06 16:37:00,95.8,67.6,29.91,SSE,153,3.5,3.5,40,0.00,SCT,,0.00,529.0,WeatherDisplay:10.37,2013-09-06 21:37:00,
2013-09-06 16:42:00,95.8,67.6,29.90,ESE,120,1.2,1.2,40,0.00,SCT,,0.00,504.0,WeatherDisplay:10.37,2013-09-06 21:42:00,
2013-09-06 16:47:00,95.7,67.5,29.90,ENE,71,1.2,1.2,40,0.00,SCT,,0.00,485.0,WeatherDisplay:10.37,2013-09-06 21:47:00,
2013-09-06 16:52:00,95.6,66.7,29.90,SSE,165,3.5,3.5,39,0.00,SCT,,0.00,476.0,WeatherDisplay:10.37,2013-09-06 21:52:00,
2013-09-06 16:57:00,95.5,68.1,29.90,SSE,147,3.5,3.5,41,0.00,SCT,,0.00,455.0,WeatherDisplay:10.37,2013-09-06 21:57:00,
2013-09-06 17:02:00,95.5,68.1,29.90,ESE,112,4.0,4.0,41,0.00,SCT,,0.00,452.0,WeatherDisplay:10.37,2013-09-06 22:02:00,
2013-09-06 17:07:00,95.5,68.1,29.90,SE,131,8.1,8.1,41,0.00,SCT,,0.00,424.0,WeatherDisplay:10.37,2013-09-06 22:07:00,
2013-09-06 17:12:00,95.1,67.7,29.90,East,101,3.5,3.5,41,0.00,SCT,,0.00,415.0,WeatherDisplay:10.37,2013-09-06 22:12:00,
2013-09-06 17:17:00,94.8,67.4,29.90,ESE,103,4.0,4.0,41,0.00,SCT,,0.00,396.0,WeatherDisplay:10.37,2013-09-06 22:17:00,
2013-09-06 17:22:00,94.5,68.5,29.89,ESE,119,4.6,4.6,43,0.00,SCT,,0.00,390.0,WeatherDisplay:10.37,2013-09-06 22:22:00,
2013-09-06 17:27:00,94.3,69.0,29.90,ESE,119,3.5,3.5,44,0.00,SCT,,0.00,369.0,WeatherDisplay:10.37,2013-09-06 22:27:00,
2013-09-06 17:32:00,94.0,68.8,29.90,SE,129,10.4,10.4,44,0.00,SCT,,0.00,353.0,WeatherDisplay:10.37,2013-09-06 22:32:00,
2013-09-06 17:37:00,93.8,68.6,29.90,SE,130,4.0,4.0,44,0.00,SCT,,0.00,343.0,WeatherDisplay:10.37,2013-09-06 22:37:00,
2013-09-06 17:42:00,93.6,68.4,29.90,SE,131,2.3,2.3,44,0.00,SCT,,0.00,318.0,WeatherDisplay:10.37,2013-09-06 22:42:00,
2013-09-06 17:47:00,93.4,68.2,29.90,East,93,4.6,4.6,44,0.00,SCT,,0.00,313.0,WeatherDisplay:10.37,2013-09-06 22:47:00,
2013-09-06 17:52:00,93.1,68.0,29.89,SE,138,2.3,2.3,44,0.00,SCT,,0.00,297.0,WeatherDisplay:10.37,2013-09-06 22:52:00,
2013-09-06 17:57:00,92.8,67.7,29.89,SE,126,8.1,8.1,44,0.00,SCT,,0.00,276.0,WeatherDisplay:10.37,2013-09-06 22:57:00,
2013-09-06 18:02:00,92.4,68.0,29.89,SE,128,3.5,3.5,45,0.00,SCT,,0.00,260.0,WeatherDisplay:10.37,2013-09-06 23:02:00,
2013-09-06 18:07:00,92.1,69.0,29.89,ESE,123,3.5,3.5,47,0.00,SCT,,0.00,244.0,WeatherDisplay:10.37,2013-09-06 23:07:00,
2013-09-06 18:12:00,91.8,68.1,29.89,ESE,111,8.1,8.1,46,0.00,SCT,,0.00,230.0,WeatherDisplay:10.37,2013-09-06 23:12:00,
2013-09-06 18:17:00,91.6,68.5,29.89,East,92,3.5,3.5,47,0.00,SCT,,0.00,72.0,WeatherDisplay:10.37,2013-09-06 23:17:00,
2013-09-06 18:22:00,91.3,68.2,29.88,ENE,71,3.5,3.5,47,0.00,SCT,,0.00,67.0,WeatherDisplay:10.37,2013-09-06 23:22:00,
2013-09-06 18:27:00,91.1,68.1,29.89,NE,56,2.3,2.3,47,0.00,SCT,,0.00,58.0,WeatherDisplay:10.37,2013-09-06 23:27:00,
2013-09-06 18:32:00,90.8,68.4,29.89,SSE,165,2.3,2.3,48,0.00,SCT,,0.00,60.0,WeatherDisplay:10.37,2013-09-06 23:32:00,
2013-09-06 18:37:00,90.5,68.1,29.89,ESE,119,1.2,1.2,48,0.00,SCT,,0.00,56.0,WeatherDisplay:10.37,2013-09-06 23:37:00,
2013-09-06 18:42:00,90.3,68.5,29.89,ESE,123,4.6,4.6,49,0.00,SCT,,0.00,46.0,WeatherDisplay:10.37,2013-09-06 23:42:00,
2013-09-06 18:47:00,90.0,68.3,29.88,ENE,59,3.5,3.5,49,0.00,SCT,,0.00,49.0,WeatherDisplay:10.37,2013-09-06 23:47:00,
2013-09-06 18:52:00,89.7,68.6,29.88,SSE,154,3.5,3.5,50,0.00,SCT,,0.00,46.0,WeatherDisplay:10.37,2013-09-06 23:52:00,
2013-09-06 18:57:00,89.4,68.3,29.88,ESE,114,2.3,2.3,50,0.00,SCT,,0.00,42.0,WeatherDisplay:10.37,2013-09-06 23:57:00,
2013-09-06 19:02:00,89.2,68.7,29.88,SSE,157,4.6,4.6,51,0.00,FEW,,0.00,37.0,WeatherDisplay:10.37,2013-09-07 00:02:00,
2013-09-06 19:07:00,88.9,68.4,29.88,ESE,117,8.1,8.1,51,0.00,FEW,,0.00,33.0,WeatherDisplay:10.37,2013-09-07 00:07:00,
2013-09-06 19:12:00,88.6,68.7,29.88,SE,127,1.2,1.2,52,0.00,FEW,,0.00,30.0,WeatherDisplay:10.37,2013-09-07 00:12:00,
2013-09-06 19:17:00,88.3,68.4,29.88,SE,132,0.0,0.6,52,0.00,FEW,,0.00,26.0,WeatherDisplay:10.37,2013-09-07 00:17:00,
2013-09-06 19:22:00,88.0,68.2,29.88,SE,138,2.3,2.3,52,0.00,FEW,,0.00,23.0,WeatherDisplay:10.37,2013-09-07 00:22:00,
2013-09-06 19:27:00,87.8,68.0,29.88,ESE,123,3.5,3.5,52,0.00,FEW,,0.00,18.0,WeatherDisplay:10.37,2013-09-07 00:27:00,
2013-09-06 19:32:00,87.5,68.3,29.88,SE,126,2.3,2.3,53,0.00,FEW,,0.00,14.0,WeatherDisplay:10.37,2013-09-07 00:32:00,
2013-09-06 19:37:00,87.3,68.1,29.88,East,96,2.3,2.4,53,0.00,FEW,,0.00,11.0,WeatherDisplay:10.37,2013-09-07 00:37:00,
2013-09-06 19:42:00,87.0,67.8,29.88,SSE,155,2.3,2.3,53,0.00,FEW,,0.00,7.0,WeatherDisplay:10.37,2013-09-07 00:42:00,
2013-09-06 19:47:00,86.8,68.2,29.88,SSE,149,2.3,2.3,54,0.00,FEW,,0.00,5.0,WeatherDisplay:10.37,2013-09-07 00:47:00,
2013-09-06 19:52:00,86.5,67.9,29.88,ESE,117,1.2,1.2,54,0.00,FEW,,0.00,0.0,WeatherDisplay:10.37,2013-09-07 00:52:00,
2013-09-06 19:57:00,86.3,68.2,29.88,SE,135,3.0,3.0,55,0.00,FEW,,0.00,0.0,WeatherDisplay:10.37,2013-09-07 00:57:00,
2013-09-06 20:03:00,86.0,68.0,29.88,SSE,149,4.6,4.6,55,0.00,FEW,,0.00,0.0,WeatherDisplay:10.37,2013-09-07 01:03:00,
2013-09-06 20:08:00,85.8,68.3,29.88,SE,140,2.3,2.3,56,0.00,FEW,,0.00,0.0,WeatherDisplay:10.37,2013-09-07 01:08:00,
2013-09-06 20:13:00,85.5,68.0,29.88,East,84,2.3,2.3,56,0.00,FEW,,0.00,0.0,WeatherDisplay:10.37,2013-09-07 01:13:00,
2013-09-06 20:18:00,85.3,67.8,29.88,SE,130,2.3,2.3,56,0.00,FEW,,0.00,0.0,WeatherDisplay:10.37,2013-09-07 01:18:00,
2013-09-06 20:23:00,85.0,68.1,29.88,SSE,151,3.5,3.5,57,0.00,FEW,,0.00,0.0,WeatherDisplay:10.37,2013-09-07 01:23:00,
2013-09-06 20:28:00,84.8,67.4,29.89,SSE,150,3.5,3.5,56,0.00,FEW,,0.00,0.0,WeatherDisplay:10.37,2013-09-07 01:28:00,
2013-09-06 20:33:00,84.6,67.7,29.89,SSE,153,2.3,2.3,57,0.00,FEW,,0.00,0.0,WeatherDisplay:10.37,2013-09-07 01:33:00,
2013-09-06 20:38:00,84.5,67.6,29.88,SE,126,1.2,1.2,57,0.00,FEW,,0.00,0.0,WeatherDisplay:10.37,2013-09-07 01:38:00,
2013-09-06 20:43:00,84.3,67.4,29.88,SSE,147,2.0,2.0,57,0.00,FEW,,0.00,0.0,WeatherDisplay:10.37,2013-09-07 01:43:00,
2013-09-06 20:48:00,84.1,67.7,29.89,East,80,3.5,3.5,58,0.00,FEW,,0.00,0.0,WeatherDisplay:10.37,2013-09-07 01:48:00,
2013-09-06 20:53:00,84.0,67.6,29.89,SSE,163,3.5,3.5,58,0.00,FEW,,0.00,0.0,WeatherDisplay:10.37,2013-09-07 01:53:00,
2013-09-06 20:58:00,83.8,67.4,29.89,ENE,78,1.2,1.2,58,0.00,FEW,,0.00,0.0,WeatherDisplay:10.37,2013-09-07 01:58:00,
2013-09-06 21:03:00,83.6,67.3,29.89,ESE,121,1.2,1.2,58,0.00,FEW,,0.00,0.0,WeatherDisplay:10.37,2013-09-07 02:03:00,
2013-09-06 21:08:00,83.4,67.6,29.89,SSE,157,2.0,2.0,59,0.00,FEW,,0.00,0.0,WeatherDisplay:10.37,2013-09-07 02:08:00,
2013-09-06 21:13:00,83.3,67.5,29.89,ESE,113,1.2,1.2,59,0.00,FEW,,0.00,0.0,WeatherDisplay:10.37,2013-09-07 02:13:00,
2013-09-06 21:18:00,83.2,67.4,29.89,SE,136,3.5,3.5,59,0.00,FEW,,0.00,0.0,WeatherDisplay:10.37,2013-09-07 02:18:00,
2013-09-06 21:23:00,83.1,67.3,29.89,SSE,158,2.3,2.3,59,0.00,FEW,,0.00,0.0,WeatherDisplay:10.37,2013-09-07 02:23:00,
2013-09-06 21:28:00,82.9,67.1,29.90,SE,129,3.5,3.5,59,0.00,FEW,,0.00,0.0,WeatherDisplay:10.37,2013-09-07 02:28:00,
2013-09-06 21:33:00,82.8,67.5,29.90,South,174,3.5,3.5,60,0.00,FEW,,0.00,0.0,WeatherDisplay:10.37,2013-09-07 02:33:00,
2013-09-06 21:38:00,82.6,67.3,29.90,South,178,3.5,3.5,60,0.00,FEW,,0.00,0.0,WeatherDisplay:10.37,2013-09-07 02:38:00,
2013-09-06 21:43:00,82.4,67.6,29.90,ESE,116,2.3,2.3,61,0.00,FEW,,0.00,0.0,WeatherDisplay:10.37,2013-09-07 02:43:00,
2013-09-06 21:48:00,82.2,67.4,29.90,SSE,157,2.3,2.3,61,0.00,FEW,,0.00,0.0,WeatherDisplay:10.37,2013-09-07 02:48:00,
2013-09-06 21:53:00,82.0,67.2,29.90,SSW,202,3.5,3.5,61,0.00,FEW,,0.00,0.0,WeatherDisplay:10.37,2013-09-07 02:53:00,
2013-09-06 21:58:00,81.8,67.5,29.90,SE,130,1.2,1.2,62,0.00,FEW,,0.00,0.0,WeatherDisplay:10.37,2013-09-07 02:58:00,
2013-09-06 22:03:00,81.6,67.3,29.90,South,171,3.5,3.5,62,0.00,FEW,,0.00,0.0,WeatherDisplay:10.37,2013-09-07 03:03:00,
2013-09-06 22:08:00,81.4,67.6,29.90,SSE,167,3.5,3.5,63,0.00,FEW,,0.00,0.0,WeatherDisplay:10.37,2013-09-07 03:08:00,
2013-09-06 22:13:00,81.2,67.4,29.90,SSE,158,1.2,1.2,63,0.00,FEW,,0.00,0.0,WeatherDisplay:10.37,2013-09-07 03:13:00,
2013-09-06 22:18:00,81.0,67.2,29.90,SE,146,8.1,8.1,63,0.00,FEW,,0.00,0.0,WeatherDisplay:10.37,2013-09-07 03:18:00,
2013-09-06 22:23:00,80.9,67.6,29.90,ESE,123,4.6,4.6,64,0.00,FEW,,0.00,0.0,WeatherDisplay:10.37,2013-09-07 03:23:00,
2013-09-06 22:28:00,80.6,67.3,29.90,SSE,163,3.5,3.5,64,0.00,FEW,,0.00,0.0,WeatherDisplay:10.37,2013-09-07 03:28:00,
2013-09-06 22:33:00,80.4,67.1,29.90,SE,143,4.6,4.6,64,0.00,FEW,,0.00,0.0,WeatherDisplay:10.37,2013-09-07 03:33:00,
2013-09-06 22:38:00,80.3,67.5,29.90,ESE,111,4.6,4.6,65,0.00,FEW,,0.00,0.0,WeatherDisplay:10.37,2013-09-07 03:38:00,
2013-09-06 22:43:00,80.1,67.3,29.90,South,176,3.5,3.5,65,0.00,FEW,,0.00,0.0,WeatherDisplay:10.37,2013-09-07 03:43:00,
2013-09-06 22:48:00,80.0,67.2,29.90,SE,138,2.3,2.3,65,0.00,FEW,,0.00,0.0,WeatherDisplay:10.37,2013-09-07 03:48:00,
2013-09-06 22:53:00,79.8,67.4,29.90,SSE,167,3.5,3.5,66,0.00,FEW,,0.00,0.0,WeatherDisplay:10.37,2013-09-07 03:53:00,
2013-09-06 22:58:00,79.6,67.2,29.90,SE,139,0.0,0.0,66,0.00,FEW,,0.00,0.0,WeatherDisplay:10.37,2013-09-07 03:58:00,
2013-09-06 23:01:00,79.5,67.1,29.90,SE,146,3.5,3.5,66,0.00,FEW,,0.00,0.0,WeatherDisplay:10.37,2013-09-07 04:01:00,
2013-09-06 23:02:00,79.4,67.0,29.90,South,178,3.5,3.5,66,0.00,FEW,,0.00,0.0,WeatherDisplay:10.37,2013-09-07 04:02:00,
2013-09-06 23:03:00,79.4,67.5,29.90,SE,134,5.0,5.0,67,0.00,FEW,,0.00,0.0,WeatherDisplay:10.37,2013-09-07 04:03:00,
2013-09-06 23:08:00,79.2,67.3,29.90,East,97,1.0,1.0,67,0.00,FEW,,0.00,0.0,WeatherDisplay:10.37,2013-09-07 04:08:00,
2013-09-06 23:13:00,79.0,67.1,29.90,SSE,157,1.2,1.2,67,0.00,FEW,,0.00,0.0,WeatherDisplay:10.37,2013-09-07 04:13:00,
2013-09-06 23:18:00,78.9,67.4,29.90,SSE,159,4.6,4.6,68,0.00,FEW,,0.00,0.0,WeatherDisplay:10.37,2013-09-07 04:18:00,
2013-09-06 23:23:00,78.7,67.2,29.90,ESE,116,1.2,1.2,68,0.00,FEW,,0.00,0.0,WeatherDisplay:10.37,2013-09-07 04:23:00,
2013-09-06 23:28:00,78.6,67.6,29.90,SE,131,1.2,1.2,69,0.00,FEW,,0.00,0.0,WeatherDisplay:10.37,2013-09-07 04:28:00,
2013-09-06 23:33:00,78.4,67.0,29.91,SE,129,3.5,3.5,68,0.00,FEW,,0.00,0.0,WeatherDisplay:10.37,2013-09-07 04:33:00,
2013-09-06 23:38:00,78.3,67.3,29.90,SE,134,2.3,2.3,69,0.00,FEW,,0.00,0.0,WeatherDisplay:10.37,2013-09-07 04:38:00,
2013-09-06 23:43:00,78.2,67.2,29.91,SSE,151,1.2,1.2,69,0.00,FEW,,0.00,0.0,WeatherDisplay:10.37,2013-09-07 04:43:00,
2013-09-06 23:48:00,78.0,67.0,29.91,SE,130,3.5,3.5,69,0.00,FEW,,0.00,0.0,WeatherDisplay:10.37,2013-09-07 04:48:00,
2013-09-06 23:53:00,77.8,67.2,29.91,SE,131,3.5,3.5,70,0.00,FEW,,0.00,0.0,WeatherDisplay:10.37,2013-09-07 04:53:00,
2013-09-06 23:58:00,77.6,67.0,29.91,SE,136,3.5,3.5,70,0.00,FEW,,0.00,0.0,WeatherDisplay:10.37,2013-09-07 04:58:00,